Theta_e
284 283 282 282 281 282 281 281 281 280 280 280 280 279 280 280 280 280 280 280 280 280 280 280 280 279 280 279 279 279 279 279 278 278 278 278 277 277 278 276 276 277
283 283 282 281 281 282 280 281 281 280 280 279 280 280 280 280 280 280 280 280 280 279 279 279 279 279 279 279 278 279 278 278 279 279 278 277 277 277 277 276 276 275
283 282 282 281 281 280 280 280 280 280 280 279 280 280 281 280 280 279 279 279 279 279 279 279 279 278 278 278 278 279 278 278 278 278 278 277 277 277 276 276 276 276
283 283 282 281 281 280 280 280 280 280 280 280 280 281 281 281 279 279 279 279 279 278 278 278 278 278 278 278 277 278 277 278 277 278 278 277 277 276 276 276 276 275
283 282 282 281 281 281 280 280 280 280 280 280 280 280 280 279 278 278 278 278 278 278 278 278 278 278 278 277 277 277 276 276 276 277 277 276 276 276 276 276 275 274
282 282 281 281 281 280 280 280 280 280 280 280 280 280 279 278 278 278 278 278 278 278 278 278 278 278 277 277 276 276 276 276 276 276 276 275 275 275 277 276 274 274
282 281 281 281 280 280 280 279 280 280 280 280 279 279 278 278 278 278 278 278 278 278 278 278 278 277 277 276 276 275 274 275 274 275 275 274 274 274 275 274 274 273
281 281 281 281 280 279 279 279 279 279 279 279 279 278 278 278 278 278 278 278 278 278 278 277 277 277 277 276 275 275 274 275 274 274 274 273 273 273 273 275 273 272
281 281 281 280 280 279 279 279 279 279 279 279 278 278 278 278 278 278 278 278 278 277 277 278 278 277 277 276 275 275 275 274 274 273 273 273 273 273 273 272 272 272
281 281 280 280 279 279 279 278 279 279 279 279 278 278 278 278 278 278 278 277 277 277 278 277 277 276 276 276 275 275 274 274 273 273 273 273 273 272 272 272 272 272
280 280 280 279 279 279 279 278 278 278 279 278 278 278 278 277 277 277 277 277 278 278 277 277 276 276 276 276 275 274 273 273 273 273 272 272 272 272 275 272 272 272
280 280 280 280 279 279 279 278 278 278 278 278 278 278 277 277 277 277 278 278 278 278 277 276 276 276 276 276 275 273 273 273 273 273 272 272 272 272 274 273 272 272
280 281 281 280 280 279 279 278 278 278 278 278 278 278 278 277 277 277 278 278 278 278 277 276 276 276 275 275 274 273 273 273 272 272 271 271 271 272 272 272 272 272
281 281 281 280 280 279 279 278 278 278 278 278 278 278 278 278 277 278 278 278 277 277 277 276 276 275 275 274 274 273 274 273 272 271 271 271 272 272 272 272 272 272
281 281 280 280 279 279 278 278 278 278 278 278 278 278 278 278 278 278 278 277 277 276 276 276 276 275 275 274 274 274 274 273 272 271 272 272 272 271 271 271 271 271
280 280 280 279 279 278 279 278 278 278 277 277 277 278 278 278 278 278 278 277 276 276 276 276 275 275 277 279 279 275 273 272 272 271 272 272 272 272 271 271 271 271
280 280 279 279 279 279 278 278 278 277 277 277 277 277 278 277 277 277 277 277 276 276 275 275 275 275 279 282 282 280 274 272 272 272 272 272 272 272 271 271 271 271
280 280 279 279 278 278 278 278 277 276 276 277 277 277 277 277 277 277 277 277 276 276 275 275 275 278 281 283 283 282 279 273 272 272 272 272 272 272 271 271 271 271
280 279 279 279 278 278 278 277 276 276 276 276 277 277 277 276 276 276 276 276 276 275 275 275 275 278 282 284 284 284 282 276 271 271 271 271 272 271 271 271 271 271
279 279 279 279 278 277 276 276 276 276 276 276 277 277 277 277 276 276 276 276 275 275 275 274 274 277 282 284 284 284 283 279 270 271 271 271 271 271 271 271 271 270
279 279 278 278 277 276 276 276 276 276 276 276 277 277 277 276 276 276 276 275 275 275 274 273 273 277 281 284 284 285 285 282 271 272 271 271 272 272 271 271 271 271
279 278 278 277 276 276 276 277 277 277 276 276 276 277 277 276 276 275 275 275 274 273 272 272 271 278 281 283 284 285 285 279 272 272 271 271 271 272 272 272 271 271
279 278 277 277 276 276 276 277 277 276 276 276 275 275 275 274 274 274 274 274 273 271 271 271 270 275 281 283 284 285 284 274 272 271 271 271 271 271 271 271 271 271
278 278 277 277 276 276 277 277 277 276 276 275 275 275 274 274 273 273 272 272 272 270 270 270 270 273 280 282 284 285 283 274 272 271 271 270 270 270 270 270 271 274
278 278 278 277 277 277 277 277 277 277 276 275 275 274 274 273 272 271 270 268 269 269 272 271 270 272 278 281 283 284 282 274 272 270 270 270 270 269 269 269 269 272
279 278 278 278 278 278 278 277 277 275 275 274 274 274 273 271 270 270 270 270 268 267 268 270 270 268 271 280 283 283 284 274 271 270 270 270 269 268 267 267 268 268
Wind_Speed
10 8 9 8 8 8 10 10 8 9 8 7 8 7 8 6 5 5 5 6 5 7 6 6 6 7 6 6 6 6 6 7 6 5 6 7 5 6 6 4 4 5
10 9 7 7 6 6 5 7 9 9 9 7 7 7 5 6 4 6 7 7 5 6 5 6 6 6 6 6 6 7 6 6 6 3 6 6 4 5 5 4 4 2
9 8 9 10 10 9 8 6 6 7 8 7 6 6 7 5 6 4 6 6 7 6 5 5 5 5 5 5 5 6 7 6 6 5 6 5 4 5 3 3 3 3
9 10 10 9 8 10 8 8 7 6 6 7 7 6 6 6 6 6 6 6 7 6 5 4 5 5 5 5 6 5 5 5 5 5 6 4 4 4 4 3 3 2
10 9 8 8 7 7 7 9 9 8 8 8 7 6 7 7 7 7 7 6 6 6 5 5 4 5 5 5 5 6 4 5 4 5 6 5 3 4 3 4 3 3
8 8 8 8 8 9 9 9 9 9 9 8 9 7 6 7 7 7 7 8 6 7 6 5 6 5 5 5 4 4 5 6 5 6 6 6 3 2 3 3 4 3
11 9 9 8 8 8 9 8 8 8 8 8 7 7 7 8 7 8 8 8 8 7 7 7 6 5 4 5 4 4 3 4 4 5 7 5 5 4 3 4 3 3
11 8 9 9 9 9 9 9 9 9 8 8 8 7 7 8 8 7 7 8 7 7 6 5 5 5 6 6 6 5 4 3 5 5 5 5 4 5 3 3 3 3
10 10 10 10 11 9 9 9 9 8 8 10 9 8 6 7 8 8 8 7 7 6 6 6 6 6 6 6 6 6 7 5 5 5 6 6 5 4 4 3 3 3
11 10 11 11 11 9 11 9 9 8 8 8 8 8 9 6 6 7 7 7 7 7 6 7 7 6 6 6 7 6 6 6 5 4 4 4 5 4 4 3 4 3
11 11 12 12 11 10 11 10 9 9 8 9 9 8 7 7 6 6 7 8 9 9 8 8 8 7 8 7 6 5 6 6 5 5 4 4 4 4 4 4 3 4
13 12 13 13 12 11 11 11 10 10 10 8 9 10 8 8 9 8 8 9 8 8 8 8 7 7 8 8 8 6 5 5 5 5 4 4 4 4 4 4 4 4
13 13 13 12 12 11 10 10 10 10 10 11 9 10 10 10 8 9 7 8 8 8 8 8 8 7 7 7 7 6 6 6 5 4 4 4 4 4 4 3 3 3
13 11 11 11 10 10 10 10 10 10 10 9 9 10 10 11 11 10 8 7 8 8 7 7 7 7 7 7 7 7 7 6 6 5 5 4 4 4 4 3 3 3
11 10 9 10 10 10 10 11 11 10 9 9 9 9 8 9 8 9 9 8 7 7 7 6 8 8 7 8 8 7 7 7 7 6 6 5 4 4 3 3 3 3
11 10 10 10 11 12 12 11 10 10 10 10 10 9 8 8 8 8 8 9 9 8 7 7 8 6 8 13 11 9 8 6 6 6 6 5 6 5 4 3 4 3
10 11 11 12 11 10 9 11 11 9 9 9 9 9 9 8 8 9 9 8 9 9 9 8 7 7 12 15 14 13 8 7 7 6 6 6 5 6 6 5 3 3
11 11 11 11 10 11 10 9 8 8 9 9 9 9 8 7 9 10 9 8 7 8 9 9 8 9 15 15 15 15 11 8 6 6 6 6 6 6 5 5 5 5
11 12 11 10 10 10 9 8 9 9 9 9 11 9 7 9 10 9 10 8 9 10 10 9 8 11 15 16 16 15 15 10 6 6 7 6 6 6 6 5 5 5
10 10 10 10 9 8 8 9 10 12 10 8 7 7 9 8 8 10 9 9 10 10 9 8 8 10 15 16 15 16 16 12 6 6 6 6 6 6 5 6 6 6
11 10 10 9 9 9 9 10 11 9 9 9 9 10 11 12 11 10 10 9 9 8 8 8 8 12 15 16 16 16 17 12 6 5 6 6 6 6 6 7 7 7
11 10 10 8 9 9 10 11 11 11 11 9 8 7 6 5 6 6 8 9 8 7 7 10 8 14 16 16 17 16 17 8 7 7 7 6 6 7 7 7 7 7
12 11 10 9 9 10 11 12 11 10 8 6 8 8 9 9 10 9 8 9 8 9 10 10 7 12 16 17 17 18 12 6 7 6 7 8 8 7 7 7 7 7
10 10 10 10 10 12 13 11 8 6 8 8 11 11 11 11 9 7 7 7 9 10 11 10 10 11 16 17 17 18 13 8 7 7 7 8 8 7 6 7 7 13
9 9 10 10 11 12 10 10 10 11 8 7 8 7 8 6 6 7 7 6 7 9 7 10 9 9 15 17 18 19 13 7 8 7 8 9 8 8 6 6 7 10
8 9 10 10 11 9 8 9 7 6 7 8 8 7 7 6 6 7 8 8 7 7 8 10 10 8 9 18 18 19 18 9 7 8 10 11 9 8 7 7 8 8
Wind_Direction
156 160 160 163 163 159 152 148 150 142 139 141 142 150 152 152 150 140 132 121 122 120 125 122 120 116 113 110 110 108 106 111 108 116 108 109 114 116 113 114 100 118
162 156 154 149 143 144 145 146 148 146 144 143 141 139 142 143 150 141 136 128 121 121 123 121 118 120 123 121 123 115 111 113 114 122 110 104 112 102 107 111 118 123
158 158 160 161 160 156 151 143 138 138 139 141 136 143 145 146 140 136 132 133 128 127 125 123 121 122 123 122 119 115 122 123 120 118 108 114 112 105 115 103 86 97
167 166 164 162 157 154 149 140 136 130 130 139 155 154 146 142 137 139 135 133 128 128 128 126 128 127 120 118 114 112 124 127 135 126 118 111 118 125 136 120 121 87
168 166 162 155 150 148 146 148 149 151 153 148 139 146 144 145 146 144 139 133 132 134 136 138 133 126 119 113 117 127 135 137 141 135 131 132 147 134 156 124 134 117
166 163 158 155 155 154 156 157 156 154 151 151 158 150 152 153 151 149 144 140 145 145 146 147 140 130 126 128 128 142 148 141 150 137 134 139 145 136 146 139 135 132
167 163 160 153 153 160 155 156 157 155 158 153 142 159 158 159 156 150 147 148 150 155 154 154 146 144 146 147 141 147 148 144 140 138 135 141 135 132 134 136 136 129
163 159 154 155 157 158 158 160 162 160 155 150 161 163 166 162 156 152 150 153 153 155 154 149 151 155 159 154 153 150 155 156 146 140 139 146 141 143 142 139 134 126
158 160 158 160 160 163 164 165 162 157 159 161 165 164 171 164 159 155 156 154 152 155 155 160 163 166 167 157 160 162 163 164 160 153 152 156 156 157 152 140 131 142
164 160 160 163 166 169 168 167 162 162 164 166 165 164 165 166 159 158 155 159 158 161 166 167 168 171 168 168 166 167 167 164 162 160 158 161 158 159 156 157 167 164
168 166 167 169 170 171 171 166 166 163 168 170 164 168 167 157 164 163 163 165 170 172 172 175 178 172 169 173 171 171 169 163 163 160 162 162 162 163 167 169 174 179
172 171 174 174 172 171 171 169 167 170 171 174 172 167 166 171 168 174 175 177 175 176 177 176 174 177 179 178 171 167 166 164 161 162 164 162 165 169 169 176 177 195
176 178 175 174 174 172 167 169 172 174 174 175 176 169 169 172 177 176 183 180 178 175 179 179 178 180 183 178 169 166 165 163 166 166 169 167 172 175 181 181 184 192
180 176 175 175 171 167 170 172 173 177 180 172 167 173 176 179 178 181 181 178 179 180 180 176 180 183 188 181 172 170 167 170 170 173 173 178 177 181 177 179 185 192
172 173 172 169 167 167 171 176 180 179 174 172 175 178 181 181 179 177 174 177 178 181 180 183 190 194 188 181 173 175 174 173 177 178 177 178 180 181 182 178 191 195
171 169 170 167 169 175 178 177 177 176 175 175 180 180 178 178 177 179 182 182 179 183 186 190 201 202 201 189 181 174 175 174 173 181 180 181 181 189 195 197 200 205
167 174 170 176 178 172 174 177 178 176 175 177 179 180 180 178 176 180 187 188 187 185 189 198 203 208 203 193 187 180 168 172 177 183 182 182 191 189 200 202 211 213
174 170 173 177 173 180 178 177 170 171 178 180 179 182 183 170 183 191 189 190 187 192 199 203 208 208 203 198 191 186 176 176 175 178 183 192 194 199 198 194 204 213
171 173 176 175 182 179 171 166 172 177 181 182 190 185 167 182 192 185 195 192 191 195 204 206 213 212 206 202 196 192 186 173 181 179 184 197 198 199 196 198 201 209
173 172 178 182 177 170 168 173 177 188 189 186 176 171 184 188 190 195 195 196 197 200 204 205 211 216 210 205 200 197 193 179 181 185 192 196 200 198 199 202 206 204
176 179 182 180 175 171 173 180 186 188 184 186 182 185 185 192 193 195 200 198 201 199 201 208 216 214 214 208 204 200 200 180 177 184 193 203 206 201 202 208 212 210
178 182 182 176 173 174 179 188 191 191 189 184 181 190 197 189 203 201 200 201 200 194 201 218 221 214 216 212 207 203 203 176 176 187 196 205 209 209 207 212 212 211
183 180 181 178 176 180 190 194 192 191 190 173 183 192 191 196 201 200 200 198 196 197 204 219 220 218 215 214 209 206 202 173 182 187 200 206 217 212 213 210 214 213
182 178 179 182 181 191 195 196 193 191 190 180 187 191 197 203 198 198 200 199 199 206 206 210 221 216 215 215 212 208 200 187 188 192 206 214 223 222 209 219 219 221
180 180 183 183 191 197 193 191 192 194 188 179 198 193 206 192 186 198 208 211 213 214 210 215 227 220 218 218 214 211 205 182 187 194 209 222 220 225 218 216 231 228
179 182 187 188 196 195 191 199 187 168 175 183 196 197 196 189 193 201 209 219 210 213 220 220 223 227 221 222 218 215 210 184 188 187 217 223 218 218 217 232 226 229